This is the latest recevied weather packets stored in our database for station/object DB0MOE-6. If no packets are shown the sender has not sent any weather packets the latest 1 day(s).
| Time | Temp. | Humidity | Pressure | Rain* | Wind** | Luminosity | Snow |
|---|---|---|---|---|---|---|---|
| 1777994062 | 17.78° C | 72% | 987.6 hPa | 0 mm | 0.89 m/s, 359° | - | - |
| 1777994002 | 17.78° C | 72% | 987.6 hPa | 0 mm | 0.89 m/s, 318° | - | - |
| 1777993942 | 17.78° C | 72% | 987.6 hPa | 0 mm | 0.45 m/s, 253° | - | - |
| 1777993882 | 17.78° C | 72% | 987.6 hPa | 0 mm | 0.45 m/s, 352° | - | - |
| 1777993822 | 17.78° C | 73% | 987.5 hPa | 0 mm | 0.89 m/s, 295° | - | - |
| 1777993762 | 17.78° C | 73% | 987.5 hPa | 0 mm | 1.34 m/s, 19° | - | - |
| 1777993702 | 17.78° C | 74% | 987.6 hPa | 0 mm | 1.34 m/s, 41° | - | - |
| 1777993642 | 17.78° C | 74% | 987.6 hPa | 0 mm | 1.34 m/s, 17° | - | - |
| 1777993582 | 17.78° C | 74% | 987.5 hPa | 0 mm | 1.34 m/s, 322° | - | - |
| 1777993522 | 17.78° C | 73% | 987.5 hPa | 0 mm | 1.34 m/s, 273° | - | - |
| 1777993462 | 17.78° C | 75% | 987.6 hPa | 0 mm | 1.34 m/s, 305° | - | - |
| 1777993402 | 17.78° C | 75% | 987.5 hPa | 0 mm | 1.34 m/s, 326° | - | - |
| 1777993342 | 18.33° C | 73% | 987.4 hPa | 0 mm | 2.68 m/s, 12° | - | - |
| 1777993282 | 18.33° C | 73% | 987.4 hPa | 0 mm | 2.24 m/s, 0° | - | - |
| 1777993222 | 18.33° C | 72% | 987.6 hPa | 0 mm | 1.34 m/s, 329° | - | - |
| 1777993162 | 18.33° C | 72% | 987.5 hPa | 0 mm | 0.89 m/s, 336° | - | - |
| 1777993102 | 17.78° C | 73% | 987.4 hPa | 0 mm | 0.89 m/s, 327° | - | - |
| 1777993046 | 17.78° C | 73% | 987.5 hPa | 0 mm | 1.34 m/s, 338° | - | - |
| 1777992982 | 17.78° C | 73% | 987.6 hPa | 0 mm | 0.89 m/s, 19° | - | - |
| 1777992922 | 17.78° C | 73% | 987.6 hPa | 0 mm | 1.34 m/s, 302° | - | - |
| 1777992862 | 17.78° C | 73% | 987.6 hPa | 0 mm | 1.34 m/s, 301° | - | - |
| 1777992801 | 17.78° C | 73% | 987.6 hPa | 0 mm | 0.89 m/s, 315° | - | - |
| 1777992741 | 17.78° C | 74% | 987.7 hPa | 0 mm | 0.89 m/s, 310° | - | - |
| 1777992681 | 17.22° C | 75% | 987.6 hPa | 0 mm | 0.45 m/s, 292° | - | - |
| 1777992621 | 17.22° C | 75% | 987.6 hPa | 0 mm | 0.89 m/s, 292° | - | - |
* Rain latest hour (hover to see other rain measurements)
** Current wind speed in m/s (hover to see current wind gust speed)